Greenville, SC

6:25 PM EST on January 16, 2017 (GMT -0500)
Greenville Downtown

Weather History for KGMU - May, 2013

Change the Weather History Date:

Thursday, May 2, 2013

  Actual Average Record
Temperature  
Mean Temperature 60 °F -  
Max Temperature 62 °F 73 °F 88 °F (2007)
Min Temperature 57 °F 54 °F 46 °F (2005)
Degree Days  
Heating Degree Days 6    
Growing Degree Days 10 (Base 50)    
Moisture  
Dew Point 55 °F    
Average Humidity 87    
Maximum Humidity 94    
Minimum Humidity 77    
Precipitation  
Precipitation 0.05 in - - ()
Sea Level Pressure  
Sea Level Pressure 30.25 in    
Wind  
Wind Speed 11 mph (NE)    
Max Wind Speed 17 mph    
Max Gust Speed 22 mph    
Visibility 7 miles    
Events Rain    
Averages and records for this station are not official NWS values.
T = Trace of Precipitation, MM = Missing Value Source: NWS Daily Summary

Daily Weather History Graph

Daily Weather History Graph

Search for Another Location

Airport or City:

Trip Planner

Search our weather history database for the weather conditions in past years. The results will help you decide how hot, cold, wet, or windy it might be!

Date:

Astronomy

May. 02, 2013 Rise Set
Actual Time 6:37 AM EDT 8:15 PM EDT
Civil Twilight 6:10 AM EDT 8:42 PM EDT
Nautical Twilight 5:37 AM EDT 9:15 PM EDT
Astronomical Twilight 5:03 AM EDT 9:49 PM EDT
Moon 2:06 AM EDT (5/2) 1:20 PM EDT (5/2)
Length of Visible Light 14h 32m
Length of Day
13h 38m
Waning Gibbous, 48% of the Moon is Illuminated
May 2
Waning Gibbous
May 9
New
May 18
First Quarter
May 25
Full
May 31
Last Quarter

Hourly Weather History & Observations

Time (EDT) Temp. Dew Point Humidity Pressure Visibility Wind Dir Wind Speed Gust Speed Precip Events Conditions
12:16 AM 60.8 °F 55.4 °F 82% 30.27 in 10.0 mi ENE 9.2 mph - N/A   Overcast
12:25 AM 60.8 °F 53.6 °F 77% 30.27 in 10.0 mi ENE 9.2 mph - N/A   Overcast
12:48 AM 60.8 °F 53.6 °F 77% 30.27 in 10.0 mi NE 8.1 mph - N/A   Overcast
12:53 AM 60.1 °F 55.0 °F 83% 30.26 in 10.0 mi NE 9.2 mph - N/A   Overcast
1:39 AM 60.8 °F 53.6 °F 77% 30.26 in 10.0 mi NE 11.5 mph - N/A   Mostly Cloudy
1:53 AM 60.1 °F 54.0 °F 80% 30.25 in 10.0 mi NE 9.2 mph - N/A   Overcast
2:04 AM 60.8 °F 53.6 °F 77% 30.26 in 10.0 mi NE 13.8 mph - N/A   Overcast
2:42 AM 59.0 °F 53.6 °F 82% 30.25 in 10.0 mi NE 10.4 mph - N/A   Overcast
2:53 AM 59.0 °F 54.0 °F 83% 30.23 in 10.0 mi NE 12.7 mph - 0.00 in Rain Light Rain
3:46 AM 57.2 °F 55.4 °F 94% 30.24 in 7.0 mi NE 10.4 mph - 0.00 in Rain Light Rain
3:53 AM 57.9 °F 55.0 °F 90% 30.23 in 10.0 mi NE 11.5 mph - 0.01 in Rain Light Rain
4:53 AM 57.0 °F 55.0 °F 93% 30.22 in 7.0 mi NE 11.5 mph - 0.00 in Rain Light Rain
5:53 AM 57.0 °F 55.0 °F 93% 30.22 in 10.0 mi NE 10.4 mph - 0.01 in   Overcast
6:53 AM 57.0 °F 55.0 °F 93% 30.23 in 10.0 mi NE 10.4 mph - 0.02 in   Overcast
7:53 AM 57.0 °F 55.0 °F 93% 30.25 in 3.0 mi NE 11.5 mph - 0.01 in   Overcast
8:00 AM 57.2 °F 55.4 °F 94% 30.26 in 2.0 mi NE 12.7 mph - 0.00 in Rain Light Rain
8:22 AM 57.2 °F 55.4 °F 94% 30.26 in 4.0 mi NE 13.8 mph - 0.00 in   Overcast
8:35 AM 57.2 °F 55.4 °F 94% 30.26 in 2.5 mi NE 13.8 mph - 0.00 in   Overcast
8:53 AM 57.0 °F 55.0 °F 93% 30.26 in 2.0 mi NE 12.7 mph 20.7 mph 0.00 in   Overcast
9:17 AM 57.2 °F 55.4 °F 94% 30.27 in 3.0 mi NE 13.8 mph - N/A   Overcast
9:53 AM 57.0 °F 55.0 °F 93% 30.27 in 2.5 mi NE 11.5 mph - 0.00 in Rain Light Rain
10:04 AM 57.2 °F 55.4 °F 94% 30.28 in 4.0 mi NE 10.4 mph - 0.00 in Rain Light Rain
10:50 AM 57.2 °F 55.4 °F 94% 30.28 in 2.0 mi NE 9.2 mph - 0.00 in Rain Light Rain
10:53 AM 57.9 °F 55.9 °F 93% 30.28 in 2.5 mi NE 11.5 mph - 0.00 in Rain Light Rain
11:53 AM 57.0 °F 55.0 °F 93% 30.28 in 4.0 mi NNE 13.8 mph - 0.00 in Rain Light Rain
12:53 PM 57.9 °F 55.9 °F 93% 30.28 in 3.0 mi NE 11.5 mph - 0.00 in Rain Light Rain
1:05 PM 57.2 °F 55.4 °F 94% 30.29 in 2.5 mi NE 15.0 mph 20.7 mph 0.00 in Rain Light Rain
1:20 PM 59.0 °F 55.4 °F 88% 30.28 in 4.0 mi NE 11.5 mph - 0.00 in   Overcast
1:53 PM 59.0 °F 55.9 °F 90% 30.27 in 7.0 mi NE 11.5 mph - 0.00 in   Overcast
2:53 PM 60.1 °F 55.9 °F 86% 30.27 in 10.0 mi ENE 12.7 mph - N/A   Overcast
2:59 PM 60.8 °F 55.4 °F 82% 30.27 in 10.0 mi NE 11.5 mph - N/A   Overcast
3:17 PM 60.8 °F 55.4 °F 82% 30.27 in 10.0 mi ENE 11.5 mph - N/A   Overcast
3:53 PM 62.1 °F 55.9 °F 80% 30.25 in 10.0 mi NE 17.3 mph 20.7 mph N/A   Overcast
4:00 PM 62.6 °F 55.4 °F 77% 30.25 in 10.0 mi ENE 12.7 mph 20.7 mph N/A   Overcast
4:46 PM 60.8 °F 55.4 °F 82% 30.24 in 2.5 mi NE 12.7 mph - 0.00 in Rain Light Rain
4:53 PM 60.1 °F 55.9 °F 86% 30.23 in 3.0 mi NE 10.4 mph - 0.00 in   Overcast
5:08 PM 59.0 °F 55.4 °F 88% 30.24 in 3.0 mi NE 11.5 mph - 0.00 in Rain Light Rain
5:15 PM 59.0 °F 55.4 °F 88% 30.24 in 4.0 mi NE 12.7 mph - 0.00 in   Overcast
5:53 PM 60.1 °F 55.9 °F 86% 30.22 in 9.0 mi NE 11.5 mph 21.9 mph 0.00 in   Overcast
6:53 PM 60.1 °F 55.9 °F 86% 30.22 in 10.0 mi NE 10.4 mph - N/A   Overcast
7:53 PM 60.1 °F 55.0 °F 83% 30.23 in 10.0 mi NE 12.7 mph - N/A   Overcast
8:00 PM 60.8 °F 55.4 °F 82% 30.23 in 10.0 mi NE 11.5 mph - N/A   Overcast
8:53 PM 60.1 °F 55.0 °F 83% 30.22 in 10.0 mi NE 11.5 mph - N/A   Overcast
9:01 PM 60.8 °F 55.4 °F 82% 30.23 in 10.0 mi NE 10.4 mph - N/A   Overcast
9:45 PM 59.0 °F 55.4 °F 88% 30.24 in 10.0 mi NE 10.4 mph - N/A   Overcast
9:53 PM 59.0 °F 55.0 °F 87% 30.24 in 10.0 mi NE 10.4 mph - N/A   Overcast
10:53 PM 59.0 °F 54.0 °F 83% 30.23 in 10.0 mi NE 11.5 mph - N/A   Overcast
11:24 PM 59.0 °F 55.4 °F 88% 30.23 in 8.0 mi NE 10.4 mph 19.6 mph 0.00 in Rain Light Rain
11:53 PM 57.9 °F 55.0 °F 90% 30.22 in 8.0 mi NE 12.7 mph - 0.00 in   Overcast